Flag for Portugal Weather past 2 weeks in Lisbon, Portugal

Now
73 °F

Passing clouds.


Feels Like: 77 °F
Forecast: 60 / 84 °F
Wind: 12 mph from East

Location: Lisbon Portela Airport

Current Time: Oct 20, 2014 at 11:23:28 AM

Latest Report: Oct 20, 2014 at 11:00 AM


Visibility: N/A

Pressure: 30.09 "Hg

Humidity: 57%

Dew point: 57 °F

Location of LisbonLocation

Historic Weather in Lisbon — Graph

°F

Lisbon temperature yesterday

Maximum temperature yesterday: 84 °F (at 5:00 PM)
Minimum temperature yesterday: 63 °F (at 1:30 AM)
Average temperature yesterday: 71 °F

Past Weeks' High & Low Weather Summary

 TemperatureHumidityPressure
High84 °F (Oct 19, 5:00 PM)100% (Oct 7, 4:55 AM)30.09 "Hg (Oct 7, 4:55 AM)
Low55 °F (Oct 11, 5:00 AM)45% (Oct 19, 5:00 PM)29.62 "Hg (Oct 12, 7:00 AM)
Average66 °F85%29.91 "Hg
* Reported Oct 5 10:00 AM — Oct 20 10:00 AM, Lisbon, Weather by CustomWeather, © 2014

Note: Actual official high and low records may vary slightly from our data, if they occured in-between our weather recording intervals... More about our weather records

Advertising

Lisbon weather history for previous 24 hours

 ConditionsComfort  
Time TempWeatherWind HumidityBarometerVisibility
10:00 AM
Oct 20
72 °FSunny.12 mph61%30.07 "Hg10 mi
9:30 AM70 °FSunny.7 mph64%30.07 "Hg10 mi
9:00 AM68 °FSunny.8 mph69%30.04 "Hg10 mi
8:30 AM66 °FClear.8 mph73%30.04 "Hg10 mi
8:00 AM66 °FClear.8 mph73%30.04 "Hg10 mi
7:30 AM66 °FClear.8 mph78%30.01 "Hg10 mi
7:00 AM68 °FPassing clouds.7 mph73%30.01 "HgN/A
6:30 AM68 °FClear.9 mph73%30.01 "Hg10 mi
6:00 AM68 °FClear.8 mph73%30.01 "Hg10 mi
4:00 AM68 °FClear.8 mph78%30.01 "Hg10 mi
3:30 AM70 °FClear.7 mph73%30.01 "Hg10 mi
3:00 AM70 °FClear.7 mph73%30.01 "Hg10 mi
2:30 AM70 °FClear.9 mph73%30.01 "Hg10 mi
2:00 AM72 °FClear.8 mph73%30.01 "Hg10 mi
1:30 AM72 °FClear.8 mph73%30.01 "Hg10 mi
1:00 AM73 °FClear.8 mph69%30.01 "Hg10 mi
12:30 AM73 °FClear.10 mph69%30.01 "Hg10 mi
12:00 AM73 °FClear.9 mph69%30.01 "Hg10 mi
11:30 PM
Oct 19
73 °FClear.10 mph69%30.01 "Hg10 mi
11:00 PM73 °FClear.8 mph69%30.01 "Hg10 mi
10:30 PM75 °FClear.10 mph69%30.01 "Hg10 mi
10:00 PM75 °FClear.9 mph69%30.01 "Hg10 mi
9:30 PM77 °FClear.8 mph61%30.01 "Hg10 mi
9:00 PM77 °FPassing clouds.6 mph57%30.01 "HgN/A
8:30 PM77 °FClear.7 mph61%30.01 "Hg10 mi
8:00 PM77 °FClear.7 mph61%30.01 "Hg10 mi
7:30 PM77 °FSunny.6 mph57%29.98 "Hg10 mi
7:00 PM79 °FSunny.5 mph54%29.98 "Hg10 mi
6:30 PM81 °FSunny.3 mph51%29.98 "Hg10 mi
6:00 PM81 °FSunny.5 mph51%29.98 "Hg10 mi
5:30 PM82 °FPassing clouds.6 mph48%29.98 "HgN/A
5:00 PM84 °FPassing clouds.6 mph45%29.98 "HgN/A
4:30 PM82 °FPassing clouds.7 mph51%29.98 "HgN/A
4:00 PM82 °FPassing clouds.3 mph51%29.98 "HgN/A
3:30 PM82 °FSunny.6 mph48%29.98 "Hg10 mi
3:00 PM81 °FSunny.7 mph51%29.98 "Hg10 mi
2:30 PM81 °FPassing clouds.7 mph54%29.98 "HgN/A
2:00 PM79 °FPassing clouds.6 mph65%29.98 "HgN/A
1:30 PM77 °FPassing clouds.6 mph69%29.98 "HgN/A
1:00 PM75 °FPassing clouds.8 mph74%30.01 "HgN/A
12:30 PM73 °FSunny.8 mph74%30.01 "Hg10 mi
12:00 PM70 °FPassing clouds.8 mph83%30.01 "HgN/A
11:30 AM70 °FPassing clouds.7 mph78%30.01 "HgN/A
11:00 AM68 °FPassing clouds.8 mph83%30.01 "HgN/A
Weather by CustomWeather, © 2014

See weather overviewHow to use our weather pages